Weather in Yazovo

Russia / Altai Krai     53°35′30″N   83°10′48″E
temp.,
°C
wind,
m/s
gust,
m/s
humid.,
%
clouds,
%
prec.,
mm/h
press.,
hPa
HPBL,
m
13 april, tue
tue1301:00−1wsw268996 0.0 1029129
04:00−1wsw3989100 0.0 1028198
07:000w2698100 2.0 1028189
10:00+1nw3899100 0.4 1030367
13:00+6n466910 0.4 10311089
16:00+6nnw56767 0.0 1032902
19:00+3nnw35815 0.0 1034225
22:000wnw359371 0.0 103695
14 april, wed
wed1401:00−1w369211 0.0 1036161
04:00+1wnw4786100 0.0 1035531
07:000w3791100 0.0 1035216
10:00+2wsw4785100 0.0 1035543
13:00+5wsw6874100 0.0 1033747
16:00+6wsw61172100 0.0 1030844
19:00+5wsw51278100 0.0 1028552
22:00+4wsw4118292 0.0 1028299
15 april, thu
thu1501:00+2wsw348982 0.0 102762
04:00+1w229325 0.0 102735
07:00+2sw2293100 0.0 102748
10:00+3sw2492100 0.0 1027128
13:00+6wsw3484100 0.0 1026266
16:00+7wsw2585100 0.0 1025209
19:00+7sw2287100 0.1 102435
22:00+5sw22885 0.0 102311
16 april, fri
fri1601:00+5ssw328890 0.0 102229
04:00+5sw228880 0.0 102112
07:00+6sw348695 0.0 102070
10:00+10sw47706 0.0 1019393
13:00+13wsw466097 0.0 10181079
16:00+15wsw455340 0.0 10161548
19:00+14sw36575 0.0 1014305
22:00+10s347324 0.0 101457
17 april, sat
sat1701:00+8ssw37787 0.0 1011110
04:00+7ssw357998 0.0 100964
07:00+7s2278100 0.0 100726
10:00+11s1263100 0.0 1006204
13:00+13se3355100 0.0 1004459
16:00+14sw4456100 0.0 1004836
19:00+14wnw125963 0.0 100494
22:00+6nne478492 0.0 1006263